This is the latest recevied weather packets stored in our database for station/object KF5JED-13. If no packets are shown the sender has not sent any weather packets the latest 10 day(s).
| Time | Temp. | Humidity | Pressure | Rain* | Wind** | Luminosity | Snow |
|---|---|---|---|---|---|---|---|
| 1777862555 | 16.11° C | 40% | 1012.5 hPa | 0 mm | - | 0 W/m² | - |
| 1777862252 | 16.67° C | 40% | 1012.5 hPa | 0 mm | - | 0 W/m² | - |
| 1777861948 | 16.67° C | 40% | 1012.3 hPa | 0 mm | - | 0 W/m² | - |
| 1777861644 | 17.22° C | 39% | 1012.1 hPa | 0 mm | - | 0 W/m² | - |
| 1777861341 | 17.78° C | 38% | 1012.3 hPa | 0 mm | - | 0 W/m² | - |
| 1777861038 | 18.33° C | 38% | 1012.2 hPa | 0 mm | - | 0 W/m² | - |
| 1777860735 | 18.89° C | 37% | 1012.2 hPa | 0 mm | - | 0 W/m² | - |
| 1777860432 | 19.44° C | 37% | 1012.2 hPa | 0 mm | - | 0 W/m² | - |
| 1777860128 | 20° C | 36% | 1012 hPa | 0 mm | - | 0 W/m² | - |
| 1777859825 | 20.56° C | 35% | 1012.1 hPa | 0 mm | - | 0 W/m² | - |
| 1777859521 | 21.11° C | 34% | 1012.2 hPa | 0 mm | - | 0 W/m² | - |
| 1777859216 | 21.67° C | 33% | 1012.1 hPa | 0 mm | - | 1 W/m² | - |
| 1777858914 | 22.22° C | 32% | 1012 hPa | 0 mm | - | 2 W/m² | - |
| 1777858612 | 21.67° C | 33% | 1012 hPa | 0 mm | - | 3 W/m² | - |
| 1777858308 | 21.67° C | 33% | 1011.9 hPa | 0 mm | - | 6 W/m² | - |
| 1777858005 | 22.22° C | 32% | 1011.8 hPa | 0 mm | - | 9 W/m² | - |
| 1777857703 | 22.78° C | 32% | 1012 hPa | 0 mm | - | 14 W/m² | - |
| 1777857400 | 22.78° C | 31% | 1012.1 hPa | 0 mm | - | 17 W/m² | - |
| 1777857096 | 22.78° C | 31% | 1011.8 hPa | 0 mm | - | 20 W/m² | - |
| 1777856792 | 23.33° C | 31% | 1012 hPa | 0 mm | - | 26 W/m² | - |
| 1777856488 | 23.33° C | 30% | 1012 hPa | 0 mm | - | 31 W/m² | - |
| 1777856186 | 23.33° C | 31% | 1012.1 hPa | 0 mm | - | 44 W/m² | - |
| 1777855882 | 23.33° C | 30% | 1012.1 hPa | 0 mm | - | 50 W/m² | - |
| 1777855580 | 23.33° C | 30% | 1012.1 hPa | 0 mm | - | 52 W/m² | - |
| 1777855277 | 23.89° C | 29% | 1012.3 hPa | 0 mm | - | 61 W/m² | - |
* Rain latest hour (hover to see other rain measurements)
** Current wind speed in m/s (hover to see current wind gust speed)